QPF
0.00 0.00 0.00 0.00 0.00 0.00 0.00 0.00 0.00 0.00 0.00 0.00 0.00 0.02 0.03 0.04 0.04 0.01 0.01 0.00 0.00 0.00 0.00 0.01 0.02 0.02 0.02 0.02 0.02 0.02 0.03 0.03 0.06 0.07 0.05 0.04 0.04 0.06 0.09 0.10 0.07 0.07 0.07 0.04
0.00 0.00 0.00 0.00 0.00 0.00 0.00 0.00 0.00 0.00 0.00 0.00 0.00 0.00 0.01 0.02 0.02 0.01 0.01 0.00 0.00 0.01 0.01 0.02 0.02 0.01 0.01 0.02 0.02 0.03 0.07 0.06 0.05 0.05 0.05 0.04 0.04 0.05 0.10 0.15 0.09 0.09 0.08 0.05
0.00 0.00 0.00 0.00 0.00 0.00 0.00 0.00 0.00 0.00 0.00 0.00 0.00 0.00 0.01 0.01 0.01 0.01 0.01 0.01 0.00 0.01 0.02 0.02 0.02 0.01 0.01 0.01 0.02 0.03 0.06 0.11 0.07 0.05 0.07 0.07 0.06 0.06 0.09 0.12 0.10 0.11 0.08 0.06
0.00 0.00 0.00 0.00 0.00 0.00 0.00 0.00 0.00 0.00 0.00 0.00 0.00 0.00 0.01 0.02 0.01 0.01 0.01 0.01 0.01 0.04 0.04 0.04 0.02 0.01 0.01 0.01 0.02 0.04 0.07 0.07 0.07 0.07 0.07 0.06 0.05 0.07 0.11 0.12 0.11 0.12 0.11 0.08
0.00 0.00 0.00 0.00 0.00 0.00 0.00 0.00 0.00 0.00 0.00 0.00 0.00 0.00 0.01 0.01 0.01 0.00 0.00 0.00 0.01 0.02 0.03 0.06 0.04 0.01 0.01 0.01 0.02 0.04 0.04 0.05 0.07 0.08 0.07 0.07 0.08 0.09 0.13 0.11 0.10 0.11 0.12 0.10
0.00 0.00 0.00 0.00 0.00 0.00 0.00 0.00 0.00 0.00 0.00 0.00 0.00 0.00 0.00 0.00 0.00 0.00 0.00 0.00 0.00 0.01 0.02 0.02 0.01 0.01 0.01 0.01 0.02 0.03 0.02 0.04 0.05 0.05 0.06 0.08 0.08 0.08 0.08 0.07 0.10 0.11 0.11 0.10
0.00 0.00 0.00 0.00 0.00 0.00 0.00 0.00 0.00 0.00 0.00 0.00 0.00 0.00 0.00 0.00 0.00 0.00 0.00 0.00 0.00 0.01 0.02 0.03 0.02 0.01 0.01 0.01 0.01 0.02 0.02 0.02 0.04 0.06 0.06 0.07 0.08 0.08 0.07 0.06 0.07 0.09 0.08 0.07
0.00 0.00 0.00 0.00 0.00 0.00 0.00 0.00 0.00 0.00 0.00 0.00 0.00 0.00 0.00 0.00 0.00 0.00 0.00 0.01 0.01 0.01 0.01 0.02 0.03 0.01 0.01 0.01 0.01 0.01 0.01 0.03 0.05 0.06 0.06 0.07 0.08 0.08 0.07 0.07 0.07 0.08 0.08 0.08
0.00 0.00 0.00 0.00 0.00 0.00 0.00 0.00 0.00 0.00 0.00 0.00 0.00 0.00 0.00 0.00 0.00 0.00 0.01 0.01 0.01 0.01 0.01 0.01 0.01 0.01 0.01 0.01 0.01 0.01 0.02 0.03 0.03 0.03 0.04 0.05 0.07 0.06 0.06 0.06 0.08 0.09 0.08 0.09
0.00 0.00 0.00 0.00 0.00 0.00 0.00 0.00 0.00 0.00 0.00 0.00 0.00 0.00 0.00 0.00 0.00 0.01 0.01 0.01 0.01 0.02 0.02 0.02 0.01 0.01 0.01 0.01 0.01 0.01 0.01 0.01 0.02 0.02 0.03 0.03 0.04 0.05 0.07 0.08 0.08 0.08 0.06 0.08
0.00 0.00 0.00 0.00 0.00 0.00 0.00 0.00 0.00 0.00 0.00 0.00 0.00 0.00 0.00 0.01 0.01 0.00 0.00 0.02 0.03 0.02 0.04 0.07 0.09 0.05 0.02 0.01 0.00 0.01 0.01 0.01 0.01 0.01 0.01 0.01 0.02 0.03 0.04 0.05 0.05 0.05 0.04 0.05
0.00 0.00 0.00 0.00 0.00 0.00 0.00 0.00 0.00 0.00 0.00 0.00 0.00 0.00 0.00 0.01 0.02 0.00 0.00 0.02 0.03 0.01 0.03 0.04 0.06 0.03 0.01 0.01 0.00 0.00 0.00 0.00 0.00 0.01 0.01 0.01 0.02 0.02 0.02 0.02 0.04 0.04 0.02 0.03
0.00 0.00 0.00 0.00 0.00 0.00 0.00 0.00 0.00 0.00 0.00 0.00 0.00 0.00 0.00 0.00 0.00 0.00 0.01 0.04 0.03 0.01 0.02 0.03 0.05 0.02 0.01 0.00 0.00 0.00 0.00 0.00 0.00 0.01 0.01 0.01 0.01 0.01 0.01 0.02 0.03 0.02 0.03 0.04
0.00 0.00 0.00 0.00 0.00 0.00 0.00 0.00 0.00 0.00 0.00 0.00 0.00 0.00 0.00 0.00 0.00 0.01 0.01 0.02 0.03 0.04 0.02 0.02 0.03 0.02 0.01 0.01 0.00 0.00 0.00 0.00 0.00 0.00 0.01 0.01 0.01 0.01 0.02 0.02 0.02 0.02 0.04 0.04
0.00 0.00 0.00 0.00 0.00 0.00 0.00 0.00 0.00 0.00 0.00 0.00 0.00 0.00 0.00 0.00 0.01 0.02 0.02 0.05 0.06 0.04 0.02 0.03 0.03 0.02 0.01 0.01 0.00 0.00 0.00 0.00 0.00 0.00 0.01 0.01 0.01 0.01 0.02 0.03 0.02 0.03 0.04 0.04
0.00 0.00 0.00 0.00 0.00 0.00 0.00 0.00 0.00 0.00 0.00 0.00 0.00 0.00 0.00 0.01 0.01 0.01 0.01 0.02 0.02 0.02 0.02 0.04 0.09 0.04 0.01 0.01 0.01 0.01 0.01 0.00 0.01 0.01 0.01 0.01 0.01 0.01 0.02 0.02 0.03 0.03 0.02 0.03
0.00 0.00 0.00 0.00 0.00 0.00 0.00 0.00 0.00 0.00 0.00 0.00 0.00 0.00 0.00 0.00 0.00 0.00 0.01 0.02 0.03 0.06 0.05 0.05 0.08 0.03 0.01 0.02 0.02 0.02 0.02 0.02 0.03 0.03 0.02 0.01 0.01 0.01 0.01 0.02 0.03 0.05 0.04 0.03
0.00 0.00 0.00 0.00 0.00 0.00 0.00 0.00 0.00 0.00 0.00 0.00 0.00 0.00 0.00 0.00 0.00 0.00 0.01 0.01 0.03 0.09 0.12 0.06 0.05 0.04 0.02 0.02 0.03 0.03 0.04 0.04 0.05 0.03 0.02 0.02 0.02 0.02 0.02 0.03 0.04 0.04 0.03 0.03
0.00 0.00 0.00 0.00 0.00 0.00 0.00 0.00 0.00 0.00 0.00 0.00 0.00 0.00 0.00 0.00 0.00 0.00 0.01 0.02 0.06 0.06 0.04 0.02 0.02 0.02 0.02 0.02 0.03 0.04 0.05 0.06 0.06 0.05 0.04 0.03 0.03 0.04 0.04 0.04 0.04 0.03 0.03 0.03
0.00 0.00 0.00 0.00 0.00 0.00 0.00 0.00 0.00 0.00 0.00 0.01 0.01 0.00 0.00 0.01 0.01 0.01 0.01 0.02 0.02 0.02 0.02 0.01 0.02 0.02 0.02 0.02 0.03 0.03 0.04 0.05 0.05 0.06 0.05 0.04 0.04 0.06 0.05 0.05 0.03 0.02 0.02 0.03
0.00 0.00 0.00 0.00 0.00 0.00 0.00 0.00 0.00 0.01 0.02 0.02 0.03 0.03 0.02 0.01 0.01 0.01 0.01 0.01 0.02 0.01 0.01 0.01 0.02 0.02 0.02 0.02 0.02 0.03 0.04 0.04 0.05 0.07 0.06 0.05 0.04 0.04 0.03 0.04 0.02 0.02 0.02 0.02
0.00 0.00 0.00 0.00 0.00 0.00 0.00 0.00 0.01 0.02 0.02 0.03 0.03 0.04 0.04 0.04 0.02 0.02 0.01 0.01 0.02 0.02 0.01 0.02 0.02 0.03 0.02 0.03 0.03 0.03 0.04 0.04 0.04 0.05 0.05 0.05 0.04 0.03 0.02 0.02 0.02 0.02 0.02 0.02
0.00 0.00 0.00 0.00 0.01 0.01 0.01 0.01 0.02 0.03 0.04 0.03 0.02 0.03 0.03 0.05 0.05 0.03 0.02 0.01 0.02 0.02 0.02 0.03 0.03 0.03 0.03 0.03 0.03 0.04 0.04 0.05 0.05 0.05 0.05 0.05 0.05 0.06 0.06 0.05 0.04 0.03 0.04 0.04
0.01 0.01 0.01 0.01 0.02 0.02 0.03 0.03 0.05 0.07 0.05 0.03 0.03 0.03 0.02 0.02 0.03 0.03 0.03 0.03 0.03 0.03 0.04 0.05 0.05 0.04 0.03 0.03 0.04 0.04 0.04 0.05 0.05 0.05 0.05 0.05 0.05 0.06 0.06 0.06 0.06 0.05 0.05 0.04
0.01 0.01 0.02 0.03 0.03 0.03 0.04 0.08 0.08 0.06 0.03 0.02 0.03 0.04 0.04 0.03 0.03 0.03 0.04 0.05 0.06 0.06 0.04 0.04 0.04 0.03 0.03 0.03 0.03 0.04 0.05 0.05 0.05 0.05 0.04 0.05 0.06 0.06 0.06 0.06 0.07 0.07 0.06 0.06
0.02 0.03 0.05 0.06 0.05 0.04 0.04 0.05 0.05 0.03 0.02 0.02 0.03 0.04 0.07 0.08 0.04 0.02 0.03 0.04 0.05 0.07 0.05 0.03 0.03 0.03 0.04 0.05 0.04 0.04 0.05 0.06 0.05 0.05 0.05 0.06 0.06 0.05 0.04 0.05 0.05 0.06 0.06 0.06
MSLP
1012.21 1012.99 1013.55 1013.88 1013.99 1013.94 1013.79 1013.59 1013.37 1013.15 1012.93 1012.69 1012.43 1012.15 1011.86 1011.59 1011.38 1011.25 1011.24 1011.36 1011.58 1011.88 1012.22 1012.56 1012.88 1013.17 1013.43 1013.68 1013.95 1014.27 1014.65 1015.09 1015.56 1016.03 1016.46 1016.83 1017.11 1017.29 1017.40 1017.45 1017.48 1017.52 1017.61 1017.75
1012.75 1013.32 1013.68 1013.85 1013.88 1013.83 1013.77 1013.72 1013.69 1013.64 1013.55 1013.36 1013.06 1012.65 1012.17 1011.68 1011.25 1010.95 1010.83 1010.90 1011.15 1011.54 1012.00 1012.46 1012.87 1013.22 1013.50 1013.75 1013.99 1014.29 1014.66 1015.11 1015.62 1016.15 1016.65 1017.07 1017.37 1017.54 1017.59 1017.55 1017.48 1017.42 1017.42 1017.50
1013.01 1013.34 1013.49 1013.50 1013.48 1013.49 1013.57 1013.74 1013.95 1014.13 1014.20 1014.09 1013.77 1013.23 1012.55 1011.82 1011.14 1010.64 1010.37 1010.38 1010.64 1011.10 1011.67 1012.26 1012.78 1013.21 1013.55 1013.81 1014.05 1014.33 1014.70 1015.15 1015.69 1016.26 1016.81 1017.27 1017.59 1017.75 1017.76 1017.66 1017.51 1017.37 1017.30 1017.33
1013.06 1013.15 1013.09 1012.99 1012.96 1013.07 1013.35 1013.78 1014.27 1014.71 1014.96 1014.95 1014.60 1013.95 1013.06 1012.08 1011.14 1010.41 1009.97 1009.88 1010.12 1010.62 1011.29 1011.98 1012.62 1013.15 1013.54 1013.83 1014.08 1014.35 1014.70 1015.16 1015.70 1016.30 1016.87 1017.36 1017.70 1017.86 1017.85 1017.72 1017.53 1017.34 1017.22 1017.22
1013.00 1012.87 1012.66 1012.49 1012.49 1012.74 1013.24 1013.95 1014.73 1015.43 1015.88 1015.95 1015.60 1014.83 1013.75 1012.51 1011.32 1010.35 1009.72 1009.51 1009.70 1010.21 1010.93 1011.71 1012.44 1013.04 1013.49 1013.80 1014.05 1014.31 1014.64 1015.07 1015.60 1016.19 1016.77 1017.27 1017.63 1017.81 1017.81 1017.68 1017.48 1017.28 1017.15 1017.13
1012.93 1012.63 1012.32 1012.13 1012.21 1012.62 1013.36 1014.33 1015.38 1016.31 1016.93 1017.09 1016.72 1015.85 1014.60 1013.15 1011.73 1010.54 1009.73 1009.38 1009.49 1009.97 1010.70 1011.53 1012.30 1012.95 1013.42 1013.75 1013.98 1014.20 1014.49 1014.87 1015.36 1015.92 1016.49 1016.99 1017.37 1017.57 1017.60 1017.50 1017.32 1017.14 1017.01 1017.00
1012.89 1012.50 1012.14 1012.00 1012.18 1012.76 1013.70 1014.91 1016.18 1017.29 1018.04 1018.26 1017.88 1016.95 1015.57 1013.96 1012.36 1011.00 1010.03 1009.56 1009.57 1010.00 1010.69 1011.50 1012.28 1012.92 1013.38 1013.69 1013.88 1014.05 1014.27 1014.59 1015.02 1015.53 1016.07 1016.55 1016.93 1017.16 1017.23 1017.17 1017.04 1016.89 1016.79 1016.79
1012.89 1012.47 1012.14 1012.07 1012.37 1013.09 1014.21 1015.57 1016.99 1018.22 1019.04 1019.30 1018.93 1017.96 1016.53 1014.84 1013.15 1011.68 1010.62 1010.04 1009.97 1010.30 1010.93 1011.68 1012.40 1012.99 1013.40 1013.65 1013.79 1013.89 1014.04 1014.28 1014.64 1015.08 1015.57 1016.03 1016.40 1016.65 1016.75 1016.74 1016.66 1016.55 1016.49 1016.50
1012.88 1012.50 1012.25 1012.27 1012.68 1013.52 1014.72 1016.17 1017.64 1018.90 1019.75 1020.03 1019.68 1018.73 1017.31 1015.64 1013.96 1012.48 1011.39 1010.76 1010.61 1010.85 1011.38 1012.02 1012.64 1013.14 1013.48 1013.65 1013.72 1013.76 1013.83 1014.00 1014.29 1014.67 1015.09 1015.52 1015.87 1016.12 1016.25 1016.28 1016.24 1016.18 1016.14 1016.17
1012.78 1012.50 1012.36 1012.49 1012.99 1013.88 1015.11 1016.54 1017.97 1019.19 1020.00 1020.27 1019.95 1019.07 1017.76 1016.20 1014.62 1013.23 1012.18 1011.56 1011.36 1011.51 1011.92 1012.43 1012.93 1013.31 1013.55 1013.65 1013.66 1013.64 1013.67 1013.79 1014.02 1014.35 1014.73 1015.11 1015.43 1015.67 1015.81 1015.86 1015.85 1015.82 1015.81 1015.84
1012.55 1012.40 1012.40 1012.63 1013.19 1014.07 1015.23 1016.55 1017.85 1018.94 1019.67 1019.91 1019.63 1018.86 1017.71 1016.35 1014.98 1013.76 1012.83 1012.25 1012.03 1012.12 1012.40 1012.77 1013.13 1013.39 1013.54 1013.58 1013.55 1013.52 1013.54 1013.66 1013.87 1014.17 1014.51 1014.85 1015.15 1015.37 1015.50 1015.55 1015.55 1015.54 1015.54 1015.58
1012.20 1012.22 1012.35 1012.67 1013.23 1014.05 1015.07 1016.20 1017.29 1018.20 1018.79 1018.98 1018.74 1018.10 1017.16 1016.05 1014.93 1013.94 1013.17 1012.68 1012.47 1012.49 1012.66 1012.89 1013.10 1013.26 1013.33 1013.34 1013.32 1013.33 1013.40 1013.55 1013.79 1014.10 1014.43 1014.75 1015.02 1015.22 1015.33 1015.37 1015.37 1015.36 1015.36 1015.40
1011.84 1012.01 1012.26 1012.64 1013.18 1013.88 1014.70 1015.58 1016.40 1017.07 1017.49 1017.60 1017.38 1016.88 1016.15 1015.31 1014.46 1013.71 1013.13 1012.74 1012.54 1012.50 1012.56 1012.66 1012.76 1012.82 1012.85 1012.87 1012.91 1012.99 1013.16 1013.40 1013.71 1014.07 1014.42 1014.74 1014.99 1015.16 1015.25 1015.28 1015.27 1015.26 1015.27 1015.31
1011.57 1011.89 1012.24 1012.64 1013.12 1013.67 1014.26 1014.85 1015.37 1015.76 1015.97 1015.97 1015.76 1015.36 1014.83 1014.23 1013.64 1013.12 1012.70 1012.40 1012.22 1012.12 1012.07 1012.06 1012.05 1012.05 1012.07 1012.14 1012.26 1012.47 1012.77 1013.14 1013.56 1013.99 1014.38 1014.72 1014.96 1015.11 1015.19 1015.21 1015.20 1015.19 1015.21 1015.27
1011.55 1011.98 1012.40 1012.80 1013.19 1013.56 1013.90 1014.18 1014.39 1014.49 1014.48 1014.35 1014.11 1013.78 1013.39 1012.99 1012.61 1012.27 1011.98 1011.75 1011.55 1011.39 1011.25 1011.14 1011.05 1011.01 1011.04 1011.17 1011.41 1011.76 1012.22 1012.73 1013.27 1013.79 1014.24 1014.59 1014.85 1014.99 1015.06 1015.08 1015.08 1015.09 1015.14 1015.22
1011.85 1012.36 1012.81 1013.18 1013.46 1013.65 1013.74 1013.73 1013.63 1013.46 1013.22 1012.94 1012.63 1012.33 1012.04 1011.77 1011.53 1011.31 1011.11 1010.90 1010.68 1010.46 1010.23 1010.03 1009.88 1009.82 1009.88 1010.09 1010.45 1010.94 1011.54 1012.19 1012.84 1013.44 1013.94 1014.32 1014.58 1014.73 1014.80 1014.83 1014.85 1014.90 1014.99 1015.12
1012.48 1013.02 1013.47 1013.78 1013.95 1013.96 1013.82 1013.55 1013.19 1012.76 1012.31 1011.88 1011.50 1011.17 1010.92 1010.72 1010.56 1010.41 1010.24 1010.03 1009.78 1009.49 1009.19 1008.92 1008.73 1008.67 1008.77 1009.05 1009.50 1010.11 1010.82 1011.58 1012.31 1012.96 1013.50 1013.90 1014.16 1014.31 1014.40 1014.45 1014.51 1014.60 1014.75 1014.93
1013.38 1013.89 1014.29 1014.53 1014.58 1014.43 1014.10 1013.62 1013.04 1012.41 1011.78 1011.22 1010.75 1010.38 1010.12 1009.94 1009.81 1009.68 1009.51 1009.29 1009.00 1008.67 1008.32 1008.02 1007.81 1007.76 1007.89 1008.23 1008.75 1009.43 1010.21 1011.02 1011.78 1012.45 1012.99 1013.38 1013.63 1013.79 1013.88 1013.97 1014.07 1014.22 1014.43 1014.67
1014.36 1014.80 1015.12 1015.26 1015.20 1014.92 1014.45 1013.82 1013.08 1012.30 1011.55 1010.89 1010.34 1009.93 1009.64 1009.45 1009.32 1009.19 1009.02 1008.78 1008.48 1008.14 1007.78 1007.48 1007.28 1007.25 1007.41 1007.78 1008.34 1009.04 1009.83 1010.63 1011.37 1012.01 1012.51 1012.87 1013.10 1013.25 1013.36 1013.47 1013.62 1013.82 1014.09 1014.39
1015.24 1015.57 1015.78 1015.82 1015.65 1015.28 1014.71 1013.99 1013.16 1012.31 1011.49 1010.76 1010.17 1009.72 1009.41 1009.21 1009.06 1008.93 1008.77 1008.55 1008.27 1007.95 1007.62 1007.35 1007.20 1007.20 1007.39 1007.77 1008.33 1009.01 1009.75 1010.50 1011.17 1011.74 1012.17 1012.47 1012.67 1012.80 1012.92 1013.05 1013.24 1013.49 1013.80 1014.15
1015.87 1016.06 1016.13 1016.06 1015.81 1015.38 1014.76 1014.01 1013.16 1012.29 1011.46 1010.72 1010.12 1009.65 1009.34 1009.13 1008.99 1008.87 1008.74 1008.56 1008.34 1008.08 1007.83 1007.64 1007.54 1007.60 1007.81 1008.20 1008.72 1009.34 1010.01 1010.65 1011.23 1011.69 1012.04 1012.27 1012.43 1012.53 1012.65 1012.80 1013.01 1013.30 1013.64 1014.02
1016.14 1016.18 1016.12 1015.95 1015.64 1015.17 1014.56 1013.82 1013.01 1012.18 1011.39 1010.68 1010.10 1009.65 1009.34 1009.15 1009.03 1008.95 1008.87 1008.76 1008.63 1008.48 1008.33 1008.24 1008.24 1008.35 1008.59 1008.96 1009.44 1009.99 1010.55 1011.08 1011.53 1011.89 1012.14 1012.30 1012.41 1012.50 1012.60 1012.77 1013.00 1013.30 1013.65 1014.03
1016.08 1015.96 1015.78 1015.52 1015.16 1014.69 1014.12 1013.45 1012.71 1011.97 1011.25 1010.61 1010.07 1009.66 1009.38 1009.22 1009.13 1009.10 1009.09 1009.08 1009.05 1009.03 1009.01 1009.04 1009.13 1009.31 1009.58 1009.94 1010.36 1010.82 1011.27 1011.68 1012.02 1012.27 1012.44 1012.55 1012.62 1012.69 1012.79 1012.96 1013.20 1013.50 1013.85 1014.22
1015.74 1015.48 1015.20 1014.88 1014.51 1014.07 1013.55 1012.97 1012.34 1011.71 1011.09 1010.53 1010.06 1009.70 1009.46 1009.33 1009.28 1009.31 1009.37 1009.45 1009.55 1009.65 1009.76 1009.91 1010.09 1010.33 1010.63 1010.96 1011.33 1011.71 1012.06 1012.36 1012.60 1012.77 1012.88 1012.95 1013.00 1013.07 1013.19 1013.36 1013.60 1013.89 1014.21 1014.55
1015.26 1014.90 1014.55 1014.19 1013.82 1013.42 1012.99 1012.51 1012.00 1011.48 1010.97 1010.51 1010.11 1009.80 1009.60 1009.50 1009.49 1009.56 1009.69 1009.87 1010.06 1010.28 1010.50 1010.75 1011.01 1011.30 1011.61 1011.92 1012.24 1012.54 1012.81 1013.03 1013.20 1013.31 1013.39 1013.45 1013.51 1013.59 1013.72 1013.90 1014.14 1014.41 1014.70 1014.99
1014.78 1014.35 1013.95 1013.58 1013.23 1012.89 1012.54 1012.17 1011.78 1011.38 1010.97 1010.59 1010.26 1010.00 1009.82 1009.75 1009.77 1009.88 1010.06 1010.30 1010.57 1010.87 1011.19 1011.51 1011.83 1012.14 1012.45 1012.74 1013.00 1013.24 1013.45 1013.61 1013.74 1013.83 1013.91 1013.98 1014.07 1014.19 1014.34 1014.54 1014.77 1015.02 1015.28 1015.51
Thickness
5837 5817 5806 5815 5822 5821 5821 5817 5816 5828 5848 5839 5829 5825 5829 5833 5830 5825 5821 5819 5815 5813 5814 5812 5809 5805 5799 5794 5788 5783 5778 5774 5770 5765 5759 5755 5754 5754 5754 5755 5755 5754 5754 5754
5811 5805 5825 5834 5836 5833 5827 5817 5817 5828 5844 5836 5826 5824 5830 5833 5832 5831 5826 5822 5818 5814 5811 5809 5807 5804 5800 5795 5789 5785 5780 5775 5772 5768 5763 5759 5756 5754 5754 5754 5754 5754 5754 5753
5802 5817 5839 5835 5831 5827 5825 5820 5819 5821 5830 5830 5820 5806 5817 5828 5834 5833 5832 5828 5824 5819 5813 5810 5807 5804 5800 5795 5791 5788 5782 5778 5774 5770 5764 5759 5755 5752 5752 5752 5752 5754 5754 5753
5810 5828 5833 5829 5827 5829 5813 5834 5833 5825 5807 5796 5807 5777 5801 5816 5820 5825 5826 5825 5823 5821 5817 5812 5809 5805 5801 5798 5795 5790 5784 5779 5774 5770 5764 5759 5753 5749 5750 5751 5752 5753 5754 5753
5807 5827 5826 5822 5831 5837 5828 5841 5835 5827 5809 5795 5799 5782 5790 5810 5810 5817 5824 5825 5825 5824 5820 5815 5813 5809 5805 5801 5796 5791 5785 5780 5775 5771 5766 5760 5755 5753 5752 5751 5751 5751 5752 5753
5814 5833 5834 5834 5844 5846 5842 5828 5816 5801 5789 5773 5791 5783 5781 5801 5815 5820 5825 5828 5827 5826 5822 5817 5815 5811 5805 5802 5797 5791 5785 5780 5776 5772 5767 5762 5757 5754 5751 5750 5749 5749 5750 5751
5800 5818 5835 5844 5830 5834 5825 5788 5761 5761 5751 5761 5789 5786 5787 5818 5833 5833 5830 5830 5830 5827 5822 5816 5812 5808 5804 5801 5796 5792 5786 5780 5777 5772 5767 5763 5759 5755 5752 5750 5749 5749 5748 5749
5775 5781 5819 5835 5827 5814 5812 5789 5756 5746 5746 5758 5782 5781 5801 5834 5843 5843 5839 5834 5831 5826 5822 5818 5815 5810 5806 5802 5798 5792 5786 5781 5777 5772 5768 5765 5760 5757 5754 5753 5751 5750 5750 5750
5771 5778 5821 5835 5839 5827 5809 5793 5789 5764 5762 5754 5765 5788 5812 5834 5833 5833 5832 5829 5825 5824 5821 5818 5816 5812 5807 5802 5798 5793 5787 5782 5778 5774 5769 5765 5761 5758 5755 5754 5752 5751 5751 5751
5787 5779 5804 5826 5834 5829 5822 5807 5776 5761 5746 5739 5757 5773 5783 5809 5816 5823 5823 5823 5823 5822 5820 5818 5816 5813 5808 5804 5799 5794 5789 5784 5779 5774 5770 5766 5762 5759 5756 5754 5752 5751 5751 5751
5792 5775 5785 5801 5804 5803 5809 5802 5781 5759 5753 5740 5739 5762 5808 5812 5818 5819 5822 5826 5825 5822 5820 5818 5815 5813 5809 5804 5799 5794 5788 5783 5778 5774 5770 5766 5762 5760 5757 5754 5753 5752 5751 5750
5792 5773 5763 5782 5811 5823 5813 5803 5783 5762 5757 5750 5744 5764 5822 5821 5825 5825 5825 5827 5827 5825 5822 5820 5816 5812 5807 5802 5798 5793 5788 5784 5779 5775 5770 5766 5763 5760 5757 5754 5753 5752 5750 5750
5791 5766 5750 5759 5779 5804 5805 5804 5793 5777 5760 5747 5744 5768 5819 5820 5822 5824 5823 5824 5824 5822 5818 5816 5813 5809 5805 5801 5797 5793 5789 5784 5780 5775 5770 5765 5762 5759 5756 5754 5752 5751 5749 5748
5800 5766 5757 5751 5762 5786 5792 5800 5798 5776 5756 5754 5761 5776 5800 5807 5812 5817 5820 5821 5820 5819 5816 5812 5808 5806 5804 5801 5797 5792 5788 5785 5780 5775 5770 5765 5762 5759 5756 5754 5752 5749 5747 5746
5786 5765 5771 5777 5789 5796 5794 5796 5797 5785 5776 5768 5776 5782 5797 5807 5814 5818 5820 5819 5816 5814 5812 5810 5806 5804 5801 5798 5795 5792 5788 5785 5781 5774 5769 5765 5762 5759 5756 5752 5750 5747 5745 5743
5769 5764 5769 5772 5787 5790 5788 5794 5796 5794 5793 5786 5787 5789 5811 5817 5817 5815 5815 5816 5812 5811 5812 5810 5807 5803 5800 5797 5794 5791 5787 5784 5780 5773 5768 5765 5761 5757 5754 5751 5747 5744 5741 5739
5751 5752 5744 5745 5769 5773 5762 5784 5790 5791 5796 5793 5784 5796 5811 5808 5810 5812 5814 5814 5812 5810 5809 5807 5807 5804 5801 5798 5795 5790 5787 5782 5776 5771 5766 5762 5758 5754 5751 5749 5744 5740 5737 5735
5744 5736 5728 5733 5748 5734 5759 5793 5797 5791 5793 5800 5800 5805 5809 5809 5811 5814 5816 5814 5811 5809 5807 5806 5804 5801 5799 5796 5793 5789 5784 5778 5773 5767 5763 5760 5756 5752 5748 5744 5740 5737 5734 5731
5744 5734 5721 5715 5719 5733 5762 5787 5791 5782 5777 5794 5797 5802 5806 5808 5805 5800 5808 5812 5811 5810 5808 5805 5803 5799 5795 5792 5789 5784 5777 5772 5767 5763 5760 5757 5753 5748 5744 5739 5736 5733 5729 5726
5731 5727 5715 5710 5713 5713 5746 5781 5794 5783 5762 5787 5793 5796 5798 5798 5779 5783 5799 5804 5804 5805 5803 5800 5798 5794 5789 5786 5783 5777 5771 5767 5762 5760 5757 5754 5751 5745 5740 5736 5733 5729 5726 5722
5705 5705 5702 5700 5703 5716 5753 5777 5782 5747 5750 5780 5787 5790 5792 5787 5787 5790 5794 5796 5797 5796 5795 5794 5790 5785 5781 5780 5776 5769 5765 5762 5760 5757 5753 5749 5746 5741 5737 5732 5728 5724 5720 5716
5689 5686 5688 5688 5690 5703 5752 5763 5753 5750 5767 5774 5780 5783 5783 5783 5785 5785 5785 5786 5786 5785 5784 5783 5778 5774 5772 5771 5768 5762 5757 5757 5755 5751 5746 5742 5739 5735 5731 5726 5722 5718 5713 5709
5684 5688 5689 5694 5699 5722 5740 5748 5755 5758 5759 5764 5768 5773 5776 5774 5771 5773 5774 5774 5774 5773 5771 5769 5766 5761 5759 5758 5758 5753 5750 5749 5746 5742 5737 5734 5731 5727 5724 5719 5714 5710 5705 5701
5681 5692 5689 5691 5702 5715 5728 5738 5744 5750 5752 5757 5760 5762 5765 5761 5761 5761 5761 5761 5761 5759 5757 5755 5752 5749 5746 5745 5745 5743 5741 5740 5737 5732 5728 5725 5721 5717 5713 5710 5706 5701 5697 5694
5669 5677 5676 5680 5692 5704 5715 5722 5730 5737 5743 5747 5748 5751 5752 5751 5749 5749 5748 5748 5747 5746 5743 5742 5740 5737 5735 5734 5733 5731 5729 5728 5724 5720 5717 5714 5711 5706 5702 5697 5693 5690 5687 5684
5659 5662 5663 5665 5679 5686 5694 5710 5720 5724 5727 5732 5734 5735 5737 5737 5735 5736 5735 5735 5734 5732 5730 5728 5726 5724 5722 5720 5718 5718 5717 5715 5711 5707 5704 5702 5699 5695 5690 5685 5679 5676 5675 5673